Погода в Каме

Россия / Удмуртская Республика     56°18′27″N   54°05′34″E
темп.,
°C
ветер,
м/с
пор.,
м/с
влажн.,
%
обл.,
%
осадки,
мм/ч
давл.,
гПа
погр.,
м
19 апреля, пн
пн1901:00+1всв7135084 0.0 1029627
04:00−1всв6125021 0.0 1031570
07:000всв7124755 0.0 1031747
10:00+3в810295 0.0 10321258
13:00+5в79250 0.0 10321643
16:00+6в68250 0.0 10321732
19:00+4всв59360 0.0 1032321
22:000всв39540 0.0 1033191
20 апреля, вт
вт2001:00−1в39560 0.0 1034190
04:00−1в23550 0.0 103572
07:00+1в35455 0.0 1036224
10:00+5вюв45305 0.0 10351088
13:00+7вюв34280 0.0 10341357
16:00+9вюв23270 0.0 10331347
19:00+6вюв22410 0.0 103228
22:00+3вюв33480 0.0 103229
21 апреля, ср
ср2101:00+2вюв22520 0.0 103212
04:00+1вюв22540 0.0 103213
07:00+3вюв365018 0.0 1032184
10:00+8ююв5737100 0.0 1032841
13:00+11ююв683084 0.0 10301298
16:00+12ююв7929100 0.0 10281366
19:00+9ююв51140100 0.0 1028376
22:00+8ююв51346100 0.0 1028395
22 апреля, чт
чт2201:00+6ю51349100 0.0 1028443
04:00+5ю41063100 0.0 1029509
07:00+5ююв61271100 0.0 1029707
10:00+8ю71159100 0.0 10291018
13:00+7ю7117499 0.8 10291097
16:00+7ю61281100 0.9 10301089
19:00+5ю61385100 0.3 1030905
22:00+4ю5996100 0.4 1030826
23 апреля, пт
пт2301:00+4ю4796100 0.4 1030742
04:00+4ю3795100 0.8 1030450
07:00+5ююв3695100 0.1 1031386
10:00+6ю3691100 0.1 1031496
13:00+6ююв3483100 0.0 1031434
16:00+6ююв3590100 0.0 1030427
19:00+5юв3593100 0.0 1030282
22:00+5вюв2495100 0.0 1029148